BTO5107 SAAC-SAAG

Flight info

Callsign BTO5107
Flight time N/A
Altitude 3500
Route D
Aircraft C172/L-S/L

Departure

Time N/A
Airport Comodoro Pierrestegui Airport (SAAC)

Arrival

Time 2026-04-19 14:05
Airport Gualeguaychu Airport (SAAG)
Time Latitude Longitude Altitude Speed Heading
2026-04-19 13:32 -32.24230 -58.32588 3493 ft 129 kts 197°
2026-04-19 13:33 -32.25100 -58.32912 3493 ft 129 kts 197°
2026-04-19 13:33 -32.25955 -58.33231 3493 ft 129 kts 197°
2026-04-19 13:33 -32.26809 -58.33549 3493 ft 129 kts 197°
2026-04-19 13:33 -32.27669 -58.33870 3493 ft 129 kts 197°
2026-04-19 13:34 -32.28529 -58.34190 3493 ft 129 kts 197°
2026-04-19 13:34 -32.29389 -58.34510 3493 ft 129 kts 197°
2026-04-19 13:34 -32.30251 -58.34832 3493 ft 129 kts 197°
2026-04-19 13:34 -32.31117 -58.35155 3493 ft 129 kts 197°
2026-04-19 13:35 -32.31969 -58.35473 3493 ft 129 kts 197°
2026-04-19 13:35 -32.32835 -58.35796 3493 ft 130 kts 197°
2026-04-19 13:35 -32.33685 -58.36113 3493 ft 130 kts 197°
2026-04-19 13:35 -32.34550 -58.36436 3493 ft 130 kts 197°
2026-04-19 13:36 -32.35404 -58.36754 3493 ft 130 kts 197°
2026-04-19 13:36 -32.36269 -58.37078 3493 ft 130 kts 197°
2026-04-19 13:36 -32.37123 -58.37397 3493 ft 130 kts 197°
2026-04-19 13:36 -32.37990 -58.37720 3493 ft 130 kts 197°
2026-04-19 13:37 -32.38845 -58.38040 3493 ft 130 kts 197°
2026-04-19 13:37 -32.39710 -58.38363 3493 ft 130 kts 197°
2026-04-19 13:37 -32.40568 -58.38684 3493 ft 130 kts 197°
2026-04-19 13:37 -32.41424 -58.39004 3493 ft 130 kts 197°
2026-04-19 13:38 -32.42284 -58.39325 3493 ft 130 kts 197°
2026-04-19 13:38 -32.43145 -58.39647 3493 ft 130 kts 197°
2026-04-19 13:38 -32.44001 -58.39967 3493 ft 130 kts 197°
2026-04-19 13:38 -32.44859 -58.40288 3493 ft 130 kts 197°
2026-04-19 13:39 -32.45725 -58.40612 3493 ft 130 kts 197°
2026-04-19 13:39 -32.46579 -58.40932 3493 ft 130 kts 197°
2026-04-19 13:39 -32.47443 -58.41256 3493 ft 130 kts 197°
2026-04-19 13:39 -32.48307 -58.41579 3493 ft 130 kts 197°
2026-04-19 13:40 -32.49166 -58.41901 3493 ft 130 kts 197°
2026-04-19 13:40 -32.50024 -58.42222 3493 ft 130 kts 197°
2026-04-19 13:40 -32.50884 -58.42544 3493 ft 130 kts 197°
2026-04-19 13:40 -32.51740 -58.42865 3493 ft 130 kts 197°
2026-04-19 13:41 -32.52602 -58.43189 3493 ft 129 kts 197°
2026-04-19 13:41 -32.53457 -58.43509 3493 ft 129 kts 197°
2026-04-19 13:41 -32.54319 -58.43831 3493 ft 129 kts 197°
2026-04-19 13:41 -32.55172 -58.44150 3493 ft 129 kts 197°
2026-04-19 13:42 -32.56044 -58.44477 3493 ft 129 kts 197°
2026-04-19 13:42 -32.56899 -58.44797 3493 ft 129 kts 197°
2026-04-19 13:42 -32.57760 -58.45120 3493 ft 129 kts 197°
2026-04-19 13:42 -32.58614 -58.45440 3493 ft 129 kts 197°
2026-04-19 13:43 -32.59467 -58.45761 3493 ft 129 kts 197°
2026-04-19 13:43 -32.60327 -58.46084 3493 ft 129 kts 197°
2026-04-19 13:43 -32.61176 -58.46402 3493 ft 129 kts 197°
2026-04-19 13:43 -32.62036 -58.46726 3493 ft 129 kts 197°
2026-04-19 13:44 -32.62887 -58.47045 3493 ft 129 kts 197°
2026-04-19 13:44 -32.63751 -58.47370 3493 ft 129 kts 197°
2026-04-19 13:44 -32.64607 -58.47691 3493 ft 129 kts 197°
2026-04-19 13:44 -32.65455 -58.48011 3493 ft 129 kts 197°
2026-04-19 13:45 -32.66307 -58.48331 3493 ft 129 kts 197°
2026-04-19 13:45 -32.67165 -58.48653 3493 ft 129 kts 197°
2026-04-19 13:45 -32.68013 -58.48972 3493 ft 129 kts 197°
2026-04-19 13:45 -32.68866 -58.49293 3493 ft 129 kts 197°
2026-04-19 13:46 -32.69722 -58.49616 3493 ft 129 kts 197°
2026-04-19 13:46 -32.70568 -58.49934 3493 ft 128 kts 197°
2026-04-19 13:46 -32.71421 -58.50255 3493 ft 128 kts 197°
2026-04-19 13:46 -32.72280 -58.50578 3493 ft 128 kts 197°
2026-04-19 13:47 -32.73136 -58.50901 3493 ft 128 kts 197°
2026-04-19 13:47 -32.73983 -58.51220 3493 ft 128 kts 197°
2026-04-19 13:47 -32.74833 -58.51540 3493 ft 128 kts 197°
2026-04-19 13:47 -32.75684 -58.51860 3493 ft 128 kts 197°
2026-04-19 13:48 -32.76539 -58.52183 3493 ft 128 kts 197°
2026-04-19 13:48 -32.77390 -58.52504 3493 ft 128 kts 197°
2026-04-19 13:48 -32.78245 -58.52826 3493 ft 128 kts 197°
2026-04-19 13:48 -32.79092 -58.53146 3493 ft 128 kts 197°
2026-04-19 13:49 -32.79939 -58.53465 3493 ft 128 kts 197°
2026-04-19 13:49 -32.80796 -58.53788 3493 ft 128 kts 197°
2026-04-19 13:49 -32.81640 -58.54107 3493 ft 128 kts 197°
2026-04-19 13:49 -32.82490 -58.54428 3493 ft 128 kts 197°
2026-04-19 13:50 -32.83350 -58.54752 3494 ft 128 kts 197°
2026-04-19 13:50 -32.84199 -58.55073 3494 ft 128 kts 197°
2026-04-19 13:50 -32.85048 -58.55394 3494 ft 128 kts 197°
2026-04-19 13:50 -32.85895 -58.55714 3494 ft 128 kts 197°
2026-04-19 13:51 -32.86744 -58.56034 3494 ft 128 kts 197°
2026-04-19 13:51 -32.87604 -58.56359 3494 ft 129 kts 197°
2026-04-19 13:51 -32.88470 -58.56685 3495 ft 133 kts 197°
2026-04-19 13:51 -32.89366 -58.57024 3494 ft 135 kts 197°
2026-04-19 13:52 -32.90263 -58.57363 3494 ft 136 kts 197°
2026-04-19 13:52 -32.91172 -58.57707 3494 ft 137 kts 197°
2026-04-19 13:52 -32.92077 -58.58049 3494 ft 136 kts 197°
2026-04-19 13:52 -32.92971 -58.58388 3493 ft 135 kts 197°
2026-04-19 13:53 -32.93868 -58.58728 3493 ft 134 kts 197°
2026-04-19 13:53 -32.94760 -58.59065 3494 ft 134 kts 197°
2026-04-19 13:53 -32.95640 -58.59399 3494 ft 134 kts 197°
2026-04-19 13:53 -32.96525 -58.59734 3494 ft 134 kts 197°
2026-04-19 13:54 -32.97410 -58.60069 3494 ft 134 kts 197°
2026-04-19 13:54 -32.98302 -58.60406 3494 ft 134 kts 197°
2026-04-19 13:54 -32.99184 -58.60741 3494 ft 134 kts 197°
2026-04-19 13:54 -33.00090 -58.60791 3489 ft 132 kts 160°
2026-04-19 13:55 -33.00770 -58.60111 3489 ft 128 kts 116°
2026-04-19 13:55 -33.00867 -58.59120 3489 ft 121 kts 72°
2026-04-19 13:55 -33.00368 -58.58363 3489 ft 118 kts 29°
2026-04-19 13:55 -32.99580 -58.58147 3493 ft 117 kts
2026-04-19 13:56 -32.98766 -58.58040 3494 ft 117 kts
2026-04-19 13:56 -32.97964 -58.57895 3494 ft 117 kts 10°
2026-04-19 13:56 -32.97162 -58.57720 3494 ft 117 kts 11°
2026-04-19 13:56 -32.96369 -58.57531 3494 ft 117 kts 12°
2026-04-19 13:57 -32.95567 -58.57333 3494 ft 117 kts 12°
2026-04-19 13:57 -32.94779 -58.57134 3494 ft 117 kts 12°
2026-04-19 13:57 -32.93984 -58.56932 3480 ft 118 kts 12°
2026-04-19 13:57 -32.93146 -58.56719 3355 ft 125 kts 12°
2026-04-19 13:58 -32.92284 -58.56499 3222 ft 129 kts 12°
2026-04-19 13:58 -32.91401 -58.56274 3081 ft 131 kts 12°
2026-04-19 13:58 -32.90507 -58.56046 2937 ft 132 kts 12°
2026-04-19 13:58 -32.89609 -58.55817 2792 ft 133 kts 13°
2026-04-19 13:59 -32.88708 -58.55588 2646 ft 133 kts 13°
2026-04-19 13:59 -32.87790 -58.55474 2547 ft 131 kts 350°
2026-04-19 13:59 -32.87058 -58.56082 2481 ft 132 kts 306°
2026-04-19 13:59 -32.86873 -58.57138 2417 ft 135 kts 263°
2026-04-19 14:00 -32.87334 -58.58089 2356 ft 135 kts 222°
2026-04-19 14:00 -32.88079 -58.58761 2269 ft 136 kts 214°
2026-04-19 14:00 -32.88832 -58.59374 2192 ft 128 kts 213°
2026-04-19 14:00 -32.89510 -58.59923 2095 ft 109 kts 213°
2026-04-19 14:01 -32.90106 -58.60364 1970 ft 97 kts 202°
2026-04-19 14:01 -32.90756 -58.60532 1848 ft 94 kts 182°
2026-04-19 14:01 -32.91402 -58.60574 1730 ft 93 kts 180°
2026-04-19 14:01 -32.92042 -58.60620 1611 ft 93 kts 181°
2026-04-19 14:02 -32.92686 -58.60672 1489 ft 93 kts 181°
2026-04-19 14:02 -32.93340 -58.60726 1365 ft 93 kts 181°
2026-04-19 14:02 -32.93989 -58.60778 1240 ft 93 kts 181°
2026-04-19 14:02 -32.94635 -58.60831 1116 ft 93 kts 181°
2026-04-19 14:03 -32.95282 -58.60884 991 ft 93 kts 181°
2026-04-19 14:03 -32.95923 -58.60937 869 ft 93 kts 181°
2026-04-19 14:03 -32.96574 -58.60990 744 ft 93 kts 181°
2026-04-19 14:03 -32.97218 -58.61043 621 ft 93 kts 181°
2026-04-19 14:04 -32.97860 -58.61096 500 ft 93 kts 181°
2026-04-19 14:04 -32.98502 -58.61144 425 ft 85 kts 185°
2026-04-19 14:04 -32.99045 -58.61238 368 ft 77 kts 182°
2026-04-19 14:04 -32.99585 -58.61270 249 ft 77 kts 177°
2026-04-19 14:05 -33.00074 -58.61271 108 ft 61 kts 177°
2026-04-19 14:05 -33.00427 -58.61282 79 ft 39 kts 184°
2026-04-19 14:05 -33.00604 -58.61334 79 ft 13 kts 245°
2026-04-19 14:05 -33.00612 -58.61356 79 ft 0 kts 246°